QPF
0.00 0.01 0.00 0.01 0.01 0.02 0.01 0.02 0.02 0.01 0.01 0.00 0.00 0.00 0.01 0.01 0.02 0.04 0.05 0.05 0.07 0.08 0.11 0.11 0.06 0.05 0.04 0.05 0.05 0.06 0.07 0.07 0.09 0.13 0.08 0.07 0.08 0.09 0.10 0.09 0.09 0.10 0.09 0.07 0.07 0.08 0.07 0.06 0.05
0.00 0.01 0.01 0.02 0.03 0.02 0.01 0.01 0.01 0.01 0.01 0.00 0.00 0.00 0.01 0.01 0.02 0.03 0.03 0.05 0.07 0.03 0.06 0.10 0.07 0.05 0.04 0.05 0.06 0.05 0.06 0.07 0.10 0.13 0.09 0.08 0.10 0.08 0.10 0.13 0.15 0.14 0.11 0.08 0.08 0.09 0.07 0.05 0.04
0.00 0.00 0.02 0.02 0.03 0.02 0.01 0.01 0.01 0.01 0.01 0.01 0.00 0.01 0.02 0.02 0.02 0.02 0.02 0.05 0.07 0.04 0.05 0.08 0.07 0.07 0.06 0.05 0.05 0.05 0.06 0.08 0.10 0.12 0.09 0.09 0.11 0.12 0.14 0.21 0.20 0.19 0.15 0.10 0.08 0.06 0.04 0.03 0.03
0.01 0.00 0.01 0.03 0.02 0.01 0.00 0.00 0.01 0.02 0.01 0.01 0.01 0.01 0.01 0.02 0.02 0.04 0.03 0.03 0.06 0.10 0.09 0.07 0.05 0.07 0.06 0.06 0.06 0.06 0.09 0.10 0.11 0.11 0.10 0.09 0.09 0.10 0.12 0.18 0.20 0.20 0.16 0.11 0.08 0.06 0.04 0.03 0.02
0.00 0.01 0.03 0.03 0.02 0.01 0.01 0.01 0.01 0.01 0.01 0.01 0.02 0.02 0.02 0.02 0.02 0.04 0.02 0.01 0.03 0.06 0.08 0.09 0.06 0.06 0.07 0.07 0.07 0.11 0.12 0.11 0.10 0.11 0.11 0.09 0.09 0.09 0.10 0.12 0.17 0.18 0.15 0.14 0.11 0.08 0.06 0.05 0.04
0.01 0.01 0.02 0.03 0.03 0.01 0.00 0.00 0.01 0.01 0.01 0.01 0.02 0.03 0.03 0.02 0.02 0.03 0.02 0.01 0.02 0.04 0.06 0.08 0.08 0.09 0.09 0.08 0.10 0.11 0.10 0.10 0.10 0.10 0.07 0.07 0.08 0.09 0.12 0.14 0.15 0.14 0.14 0.12 0.11 0.10 0.09 0.09 0.08
0.01 0.02 0.02 0.01 0.01 0.01 0.01 0.00 0.01 0.01 0.01 0.01 0.01 0.03 0.02 0.02 0.02 0.02 0.01 0.01 0.02 0.04 0.05 0.08 0.13 0.11 0.10 0.07 0.08 0.09 0.09 0.09 0.09 0.07 0.05 0.06 0.07 0.09 0.16 0.15 0.11 0.12 0.13 0.11 0.12 0.12 0.13 0.13 0.10
0.00 0.01 0.01 0.00 0.00 0.01 0.00 0.00 0.00 0.00 0.01 0.01 0.02 0.03 0.02 0.03 0.02 0.01 0.01 0.01 0.02 0.04 0.05 0.07 0.14 0.14 0.13 0.08 0.07 0.08 0.06 0.07 0.09 0.07 0.05 0.07 0.08 0.08 0.10 0.10 0.10 0.12 0.11 0.09 0.10 0.11 0.12 0.13 0.11
0.00 0.01 0.01 0.00 0.00 0.00 0.00 0.01 0.01 0.01 0.00 0.00 0.01 0.01 0.02 0.02 0.02 0.01 0.01 0.01 0.02 0.03 0.05 0.06 0.07 0.08 0.09 0.07 0.06 0.08 0.06 0.05 0.07 0.10 0.08 0.07 0.10 0.08 0.07 0.07 0.08 0.10 0.09 0.10 0.09 0.09 0.10 0.10 0.10
0.00 0.01 0.00 0.00 0.00 0.00 0.00 0.01 0.01 0.01 0.01 0.01 0.01 0.02 0.02 0.02 0.02 0.01 0.01 0.01 0.01 0.02 0.04 0.05 0.05 0.04 0.05 0.05 0.06 0.08 0.08 0.07 0.07 0.11 0.10 0.08 0.08 0.07 0.05 0.06 0.06 0.07 0.10 0.14 0.14 0.12 0.12 0.10 0.08
0.00 0.00 0.00 0.00 0.00 0.00 0.00 0.01 0.01 0.01 0.01 0.01 0.01 0.02 0.02 0.03 0.02 0.02 0.02 0.00 0.00 0.01 0.02 0.03 0.02 0.03 0.04 0.05 0.05 0.06 0.07 0.07 0.08 0.08 0.09 0.08 0.08 0.07 0.06 0.06 0.05 0.07 0.10 0.15 0.19 0.15 0.10 0.08 0.09
0.00 0.00 0.00 0.00 0.00 0.00 0.00 0.01 0.00 0.01 0.01 0.00 0.01 0.01 0.01 0.02 0.02 0.01 0.02 0.02 0.02 0.01 0.01 0.02 0.02 0.03 0.03 0.05 0.08 0.06 0.06 0.07 0.06 0.05 0.06 0.06 0.06 0.07 0.06 0.05 0.05 0.07 0.08 0.12 0.18 0.17 0.12 0.08 0.09
0.00 0.00 0.00 0.00 0.00 0.00 0.00 0.00 0.00 0.00 0.00 0.00 0.00 0.00 0.00 0.01 0.02 0.02 0.01 0.01 0.02 0.02 0.01 0.01 0.02 0.02 0.03 0.07 0.13 0.11 0.09 0.08 0.06 0.04 0.04 0.05 0.05 0.07 0.07 0.06 0.06 0.07 0.07 0.09 0.12 0.12 0.12 0.09 0.08
0.00 0.00 0.00 0.00 0.00 0.00 0.00 0.00 0.00 0.00 0.00 0.00 0.00 0.00 0.00 0.00 0.01 0.01 0.01 0.01 0.01 0.01 0.01 0.01 0.01 0.01 0.02 0.05 0.13 0.11 0.08 0.09 0.09 0.06 0.04 0.05 0.07 0.07 0.09 0.09 0.07 0.08 0.09 0.08 0.09 0.10 0.11 0.11 0.10
0.00 0.00 0.00 0.00 0.00 0.00 0.00 0.01 0.00 0.00 0.00 0.00 0.01 0.01 0.00 0.01 0.01 0.01 0.02 0.02 0.01 0.01 0.02 0.02 0.01 0.01 0.01 0.02 0.09 0.13 0.10 0.07 0.08 0.06 0.04 0.05 0.07 0.10 0.08 0.08 0.07 0.08 0.09 0.09 0.08 0.08 0.09 0.14 0.16
0.00 0.00 0.00 0.00 0.00 0.00 0.00 0.01 0.00 0.00 0.00 0.00 0.00 0.01 0.01 0.03 0.03 0.01 0.01 0.02 0.01 0.01 0.02 0.01 0.01 0.01 0.01 0.02 0.08 0.09 0.09 0.08 0.04 0.05 0.05 0.04 0.04 0.04 0.06 0.07 0.06 0.07 0.08 0.09 0.10 0.09 0.07 0.12 0.17
0.00 0.00 0.00 0.00 0.00 0.00 0.00 0.00 0.00 0.00 0.00 0.00 0.00 0.00 0.01 0.02 0.04 0.04 0.01 0.02 0.01 0.01 0.00 0.01 0.00 0.01 0.01 0.02 0.02 0.02 0.03 0.04 0.04 0.05 0.05 0.05 0.04 0.04 0.05 0.06 0.06 0.05 0.05 0.07 0.08 0.12 0.11 0.11 0.12
0.00 0.00 0.00 0.00 0.00 0.00 0.00 0.00 0.00 0.00 0.00 0.00 0.00 0.00 0.00 0.01 0.03 0.04 0.03 0.01 0.01 0.01 0.00 0.00 0.00 0.00 0.01 0.01 0.01 0.01 0.02 0.03 0.03 0.03 0.04 0.03 0.03 0.03 0.05 0.05 0.05 0.04 0.05 0.06 0.07 0.11 0.13 0.12 0.10
0.00 0.00 0.00 0.00 0.00 0.00 0.00 0.00 0.00 0.00 0.00 0.00 0.00 0.00 0.00 0.00 0.02 0.04 0.03 0.01 0.01 0.01 0.01 0.00 0.00 0.00 0.00 0.00 0.01 0.01 0.02 0.02 0.02 0.02 0.02 0.02 0.02 0.03 0.04 0.04 0.04 0.04 0.04 0.05 0.06 0.08 0.10 0.12 0.11
0.00 0.00 0.00 0.00 0.00 0.00 0.00 0.00 0.00 0.00 0.00 0.00 0.00 0.00 0.00 0.00 0.01 0.02 0.02 0.01 0.01 0.00 0.00 0.00 0.00 0.00 0.00 0.00 0.00 0.01 0.01 0.01 0.01 0.01 0.02 0.02 0.02 0.02 0.02 0.03 0.03 0.03 0.04 0.04 0.06 0.06 0.08 0.12 0.12
0.00 0.00 0.00 0.00 0.00 0.00 0.00 0.00 0.00 0.00 0.00 0.00 0.00 0.00 0.00 0.00 0.01 0.01 0.02 0.02 0.01 0.00 0.00 0.00 0.00 0.00 0.00 0.00 0.00 0.00 0.01 0.01 0.01 0.01 0.01 0.02 0.02 0.02 0.02 0.01 0.02 0.03 0.03 0.05 0.05 0.05 0.12 0.18 0.15
0.00 0.00 0.00 0.00 0.00 0.00 0.00 0.00 0.00 0.00 0.00 0.00 0.00 0.00 0.00 0.00 0.01 0.02 0.03 0.04 0.02 0.00 0.00 0.00 0.00 0.00 0.00 0.01 0.00 0.00 0.00 0.01 0.01 0.01 0.02 0.02 0.01 0.01 0.01 0.02 0.02 0.03 0.04 0.05 0.04 0.05 0.10 0.15 0.16
0.00 0.00 0.00 0.00 0.00 0.00 0.00 0.00 0.00 0.00 0.00 0.00 0.00 0.00 0.00 0.01 0.02 0.06 0.07 0.07 0.05 0.02 0.01 0.01 0.01 0.00 0.00 0.00 0.00 0.01 0.01 0.01 0.01 0.02 0.03 0.04 0.03 0.02 0.02 0.02 0.03 0.04 0.05 0.06 0.06 0.07 0.08 0.12 0.15
0.00 0.00 0.00 0.00 0.00 0.00 0.00 0.00 0.00 0.00 0.00 0.00 0.00 0.00 0.00 0.00 0.02 0.04 0.05 0.05 0.04 0.03 0.02 0.01 0.00 0.00 0.00 0.00 0.00 0.00 0.01 0.02 0.03 0.04 0.04 0.04 0.05 0.04 0.03 0.03 0.03 0.03 0.04 0.05 0.06 0.08 0.09 0.13 0.15
0.00 0.00 0.00 0.00 0.00 0.00 0.00 0.00 0.00 0.00 0.00 0.00 0.00 0.00 0.00 0.00 0.00 0.00 0.00 0.01 0.00 0.01 0.01 0.00 0.00 0.01 0.01 0.01 0.01 0.01 0.01 0.02 0.05 0.05 0.05 0.05 0.05 0.04 0.04 0.03 0.03 0.04 0.04 0.05 0.06 0.07 0.09 0.12 0.13
0.00 0.00 0.00 0.00 0.00 0.00 0.00 0.00 0.00 0.00 0.00 0.00 0.00 0.00 0.00 0.00 0.00 0.00 0.00 0.00 0.00 0.00 0.00 0.00 0.01 0.01 0.01 0.01 0.01 0.01 0.02 0.04 0.05 0.06 0.06 0.05 0.04 0.04 0.03 0.04 0.04 0.05 0.05 0.04 0.04 0.04 0.05 0.07 0.08
0.00 0.00 0.00 0.00 0.00 0.00 0.00 0.00 0.00 0.00 0.00 0.00 0.00 0.00 0.00 0.00 0.00 0.00 0.00 0.00 0.00 0.00 0.00 0.00 0.01 0.01 0.01 0.02 0.02 0.03 0.05 0.07 0.07 0.07 0.06 0.05 0.04 0.04 0.04 0.05 0.04 0.04 0.04 0.03 0.03 0.03 0.04 0.04 0.06
0.00 0.00 0.00 0.00 0.00 0.00 0.00 0.00 0.00 0.00 0.00 0.00 0.00 0.00 0.00 0.00 0.00 0.00 0.00 0.00 0.00 0.01 0.01 0.01 0.01 0.02 0.03 0.03 0.03 0.05 0.08 0.08 0.08 0.09 0.09 0.08 0.06 0.05 0.05 0.05 0.04 0.03 0.04 0.04 0.03 0.03 0.03 0.04 0.06
0.00 0.00 0.00 0.00 0.00 0.00 0.00 0.00 0.00 0.00 0.00 0.00 0.00 0.00 0.00 0.00 0.00 0.00 0.01 0.01 0.02 0.03 0.02 0.02 0.03 0.03 0.04 0.04 0.04 0.06 0.08 0.09 0.10 0.11 0.10 0.08 0.06 0.04 0.04 0.05 0.04 0.04 0.04 0.03 0.02 0.02 0.03 0.04 0.05
0.00 0.00 0.00 0.00 0.00 0.00 0.00 0.00 0.00 0.00 0.00 0.00 0.00 0.00 0.00 0.00 0.01 0.01 0.02 0.02 0.02 0.03 0.02 0.02 0.02 0.03 0.04 0.04 0.05 0.09 0.11 0.11 0.13 0.12 0.09 0.08 0.06 0.05 0.05 0.04 0.04 0.04 0.03 0.03 0.02 0.02 0.02 0.03 0.03
MSLP
1010.00 1010.33 1010.63 1010.83 1010.87 1010.73 1010.41 1009.97 1009.49 1009.05 1008.74 1008.61 1008.65 1008.82 1009.06 1009.28 1009.43 1009.46 1009.39 1009.28 1009.19 1009.20 1009.37 1009.71 1010.21 1010.80 1011.39 1011.93 1012.34 1012.64 1012.82 1012.95 1013.08 1013.26 1013.52 1013.85 1014.21 1014.55 1014.83 1015.01 1015.10 1015.11 1015.09 1015.08 1015.12 1015.21 1015.34 1015.50 1015.63
1009.94 1010.31 1010.62 1010.82 1010.85 1010.68 1010.34 1009.87 1009.37 1008.92 1008.58 1008.41 1008.40 1008.52 1008.70 1008.87 1008.98 1009.01 1008.97 1008.92 1008.93 1009.05 1009.33 1009.79 1010.38 1011.04 1011.68 1012.24 1012.67 1012.97 1013.15 1013.27 1013.39 1013.57 1013.81 1014.11 1014.43 1014.74 1014.98 1015.14 1015.21 1015.22 1015.21 1015.23 1015.29 1015.41 1015.57 1015.74 1015.86
1009.94 1010.32 1010.62 1010.80 1010.80 1010.61 1010.27 1009.81 1009.32 1008.87 1008.53 1008.35 1008.30 1008.36 1008.48 1008.60 1008.66 1008.68 1008.65 1008.65 1008.73 1008.95 1009.34 1009.89 1010.57 1011.30 1011.99 1012.58 1013.03 1013.33 1013.53 1013.65 1013.77 1013.93 1014.14 1014.41 1014.69 1014.95 1015.15 1015.28 1015.34 1015.35 1015.37 1015.42 1015.52 1015.67 1015.85 1016.01 1016.11
1009.99 1010.34 1010.61 1010.74 1010.72 1010.53 1010.19 1009.76 1009.31 1008.91 1008.61 1008.43 1008.37 1008.39 1008.46 1008.51 1008.54 1008.53 1008.51 1008.55 1008.69 1008.99 1009.46 1010.09 1010.82 1011.60 1012.32 1012.93 1013.40 1013.72 1013.92 1014.06 1014.18 1014.33 1014.52 1014.75 1014.99 1015.21 1015.37 1015.47 1015.52 1015.55 1015.60 1015.68 1015.81 1015.98 1016.16 1016.30 1016.36
1010.04 1010.34 1010.55 1010.64 1010.59 1010.39 1010.09 1009.72 1009.35 1009.02 1008.79 1008.65 1008.60 1008.60 1008.63 1008.65 1008.63 1008.60 1008.59 1008.65 1008.84 1009.19 1009.71 1010.39 1011.15 1011.94 1012.67 1013.29 1013.77 1014.09 1014.31 1014.46 1014.59 1014.74 1014.92 1015.12 1015.33 1015.51 1015.64 1015.73 1015.78 1015.82 1015.89 1016.01 1016.16 1016.33 1016.49 1016.58 1016.58
1010.05 1010.29 1010.43 1010.47 1010.39 1010.21 1009.96 1009.68 1009.40 1009.18 1009.03 1008.96 1008.95 1008.96 1008.97 1008.97 1008.93 1008.89 1008.89 1008.97 1009.19 1009.57 1010.11 1010.79 1011.55 1012.33 1013.04 1013.64 1014.11 1014.44 1014.67 1014.84 1014.98 1015.14 1015.32 1015.50 1015.69 1015.84 1015.95 1016.03 1016.08 1016.14 1016.23 1016.36 1016.51 1016.67 1016.79 1016.82 1016.74
1009.98 1010.14 1010.22 1010.22 1010.13 1009.98 1009.80 1009.62 1009.46 1009.36 1009.31 1009.32 1009.35 1009.39 1009.41 1009.40 1009.36 1009.32 1009.33 1009.43 1009.66 1010.05 1010.60 1011.26 1011.99 1012.72 1013.39 1013.96 1014.41 1014.74 1014.98 1015.17 1015.34 1015.51 1015.69 1015.87 1016.04 1016.17 1016.27 1016.34 1016.40 1016.47 1016.56 1016.69 1016.83 1016.95 1017.01 1016.98 1016.82
1009.83 1009.92 1009.94 1009.91 1009.83 1009.73 1009.62 1009.55 1009.51 1009.52 1009.58 1009.66 1009.75 1009.81 1009.85 1009.84 1009.81 1009.79 1009.81 1009.93 1010.18 1010.57 1011.10 1011.73 1012.41 1013.09 1013.71 1014.24 1014.66 1014.99 1015.24 1015.45 1015.65 1015.84 1016.03 1016.21 1016.37 1016.49 1016.57 1016.63 1016.68 1016.74 1016.83 1016.94 1017.06 1017.14 1017.15 1017.04 1016.81
1009.60 1009.64 1009.63 1009.58 1009.53 1009.48 1009.46 1009.48 1009.55 1009.66 1009.80 1009.94 1010.07 1010.16 1010.20 1010.20 1010.19 1010.18 1010.23 1010.37 1010.64 1011.03 1011.54 1012.13 1012.77 1013.39 1013.96 1014.46 1014.87 1015.20 1015.47 1015.70 1015.93 1016.14 1016.33 1016.51 1016.65 1016.76 1016.82 1016.86 1016.89 1016.94 1017.01 1017.10 1017.18 1017.22 1017.17 1017.01 1016.73
1009.36 1009.36 1009.33 1009.29 1009.27 1009.28 1009.34 1009.45 1009.60 1009.78 1009.97 1010.15 1010.29 1010.38 1010.43 1010.43 1010.42 1010.44 1010.52 1010.68 1010.96 1011.36 1011.85 1012.42 1013.02 1013.61 1014.15 1014.63 1015.03 1015.38 1015.67 1015.94 1016.19 1016.41 1016.62 1016.79 1016.91 1016.99 1017.02 1017.03 1017.04 1017.06 1017.10 1017.16 1017.20 1017.20 1017.11 1016.91 1016.60
1009.16 1009.14 1009.11 1009.09 1009.11 1009.17 1009.29 1009.46 1009.67 1009.89 1010.10 1010.28 1010.41 1010.49 1010.52 1010.52 1010.51 1010.54 1010.64 1010.83 1011.13 1011.53 1012.03 1012.58 1013.17 1013.74 1014.27 1014.75 1015.17 1015.55 1015.88 1016.17 1016.45 1016.69 1016.89 1017.05 1017.15 1017.19 1017.19 1017.16 1017.13 1017.11 1017.12 1017.14 1017.15 1017.11 1016.99 1016.77 1016.44
1009.06 1009.04 1009.02 1009.02 1009.07 1009.17 1009.34 1009.54 1009.77 1010.00 1010.21 1010.36 1010.46 1010.51 1010.51 1010.49 1010.49 1010.53 1010.64 1010.85 1011.16 1011.58 1012.07 1012.63 1013.22 1013.79 1014.34 1014.85 1015.30 1015.71 1016.08 1016.42 1016.71 1016.96 1017.16 1017.29 1017.36 1017.37 1017.33 1017.26 1017.19 1017.13 1017.10 1017.08 1017.05 1016.99 1016.85 1016.62 1016.29
1009.11 1009.09 1009.08 1009.09 1009.16 1009.29 1009.47 1009.69 1009.92 1010.13 1010.31 1010.43 1010.49 1010.50 1010.48 1010.45 1010.43 1010.47 1010.59 1010.81 1011.13 1011.56 1012.06 1012.62 1013.21 1013.81 1014.38 1014.93 1015.43 1015.88 1016.29 1016.66 1016.97 1017.22 1017.41 1017.53 1017.57 1017.54 1017.46 1017.35 1017.24 1017.15 1017.07 1017.02 1016.96 1016.87 1016.72 1016.48 1016.16
1009.31 1009.29 1009.27 1009.28 1009.35 1009.48 1009.66 1009.88 1010.09 1010.28 1010.42 1010.51 1010.54 1010.53 1010.48 1010.44 1010.43 1010.47 1010.60 1010.82 1011.13 1011.55 1012.05 1012.60 1013.20 1013.81 1014.42 1015.00 1015.54 1016.04 1016.48 1016.87 1017.19 1017.45 1017.62 1017.72 1017.73 1017.68 1017.57 1017.44 1017.30 1017.17 1017.06 1016.97 1016.88 1016.77 1016.60 1016.37 1016.05
1009.63 1009.59 1009.55 1009.54 1009.60 1009.71 1009.88 1010.07 1010.25 1010.42 1010.53 1010.60 1010.62 1010.60 1010.57 1010.54 1010.54 1010.59 1010.72 1010.93 1011.23 1011.62 1012.09 1012.64 1013.22 1013.84 1014.46 1015.06 1015.63 1016.16 1016.62 1017.02 1017.35 1017.60 1017.76 1017.83 1017.83 1017.77 1017.65 1017.50 1017.35 1017.20 1017.07 1016.96 1016.84 1016.70 1016.52 1016.28 1015.97
1010.01 1009.93 1009.85 1009.82 1009.85 1009.93 1010.06 1010.22 1010.38 1010.52 1010.62 1010.68 1010.72 1010.72 1010.72 1010.73 1010.77 1010.84 1010.97 1011.17 1011.45 1011.80 1012.23 1012.73 1013.29 1013.89 1014.50 1015.11 1015.69 1016.22 1016.69 1017.09 1017.41 1017.64 1017.79 1017.85 1017.85 1017.78 1017.67 1017.53 1017.38 1017.23 1017.09 1016.96 1016.82 1016.67 1016.48 1016.24 1015.93
1010.38 1010.26 1010.14 1010.07 1010.06 1010.10 1010.19 1010.30 1010.43 1010.54 1010.63 1010.71 1010.77 1010.83 1010.90 1010.97 1011.06 1011.18 1011.33 1011.52 1011.76 1012.07 1012.45 1012.89 1013.40 1013.95 1014.54 1015.13 1015.69 1016.21 1016.67 1017.05 1017.35 1017.56 1017.69 1017.75 1017.74 1017.69 1017.60 1017.49 1017.37 1017.23 1017.10 1016.96 1016.82 1016.66 1016.46 1016.23 1015.94
1010.69 1010.53 1010.38 1010.27 1010.21 1010.21 1010.25 1010.31 1010.38 1010.46 1010.54 1010.63 1010.74 1010.86 1011.00 1011.16 1011.33 1011.51 1011.69 1011.89 1012.11 1012.37 1012.68 1013.06 1013.51 1014.01 1014.55 1015.10 1015.64 1016.13 1016.56 1016.91 1017.17 1017.36 1017.47 1017.52 1017.53 1017.50 1017.45 1017.38 1017.29 1017.20 1017.08 1016.96 1016.82 1016.66 1016.48 1016.26 1016.00
1010.92 1010.73 1010.55 1010.42 1010.33 1010.28 1010.26 1010.25 1010.25 1010.27 1010.32 1010.40 1010.54 1010.72 1010.95 1011.20 1011.47 1011.72 1011.96 1012.18 1012.39 1012.62 1012.88 1013.20 1013.58 1014.03 1014.52 1015.03 1015.53 1015.98 1016.37 1016.68 1016.91 1017.06 1017.15 1017.20 1017.22 1017.22 1017.21 1017.19 1017.16 1017.11 1017.03 1016.94 1016.82 1016.67 1016.51 1016.32 1016.10
1011.04 1010.86 1010.69 1010.56 1010.45 1010.35 1010.26 1010.16 1010.06 1009.99 1009.97 1010.02 1010.15 1010.38 1010.68 1011.02 1011.38 1011.73 1012.04 1012.30 1012.53 1012.75 1012.98 1013.26 1013.60 1013.99 1014.44 1014.91 1015.37 1015.79 1016.14 1016.41 1016.59 1016.71 1016.78 1016.82 1016.85 1016.88 1016.91 1016.95 1016.97 1016.97 1016.94 1016.88 1016.79 1016.67 1016.54 1016.39 1016.22
1011.10 1010.95 1010.83 1010.73 1010.61 1010.47 1010.30 1010.09 1009.86 1009.66 1009.53 1009.49 1009.59 1009.82 1010.16 1010.59 1011.04 1011.49 1011.88 1012.21 1012.48 1012.72 1012.95 1013.21 1013.52 1013.89 1014.31 1014.76 1015.19 1015.58 1015.89 1016.13 1016.27 1016.36 1016.40 1016.43 1016.46 1016.51 1016.58 1016.66 1016.73 1016.78 1016.80 1016.77 1016.72 1016.63 1016.53 1016.43 1016.31
1011.11 1011.05 1011.01 1010.96 1010.86 1010.69 1010.42 1010.09 1009.70 1009.34 1009.05 1008.89 1008.91 1009.10 1009.46 1009.93 1010.46 1011.00 1011.49 1011.90 1012.24 1012.52 1012.78 1013.05 1013.36 1013.73 1014.14 1014.57 1014.99 1015.36 1015.66 1015.86 1015.98 1016.03 1016.05 1016.05 1016.08 1016.14 1016.24 1016.35 1016.46 1016.55 1016.60 1016.61 1016.58 1016.53 1016.46 1016.39 1016.33
1011.13 1011.19 1011.25 1011.27 1011.20 1011.00 1010.66 1010.19 1009.64 1009.09 1008.61 1008.30 1008.20 1008.32 1008.65 1009.14 1009.73 1010.35 1010.92 1011.42 1011.84 1012.18 1012.49 1012.79 1013.13 1013.51 1013.93 1014.37 1014.79 1015.15 1015.44 1015.62 1015.72 1015.74 1015.73 1015.72 1015.74 1015.80 1015.90 1016.03 1016.17 1016.28 1016.36 1016.39 1016.38 1016.33 1016.28 1016.23 1016.21
1011.18 1011.36 1011.54 1011.65 1011.63 1011.42 1011.00 1010.40 1009.69 1008.95 1008.29 1007.80 1007.55 1007.57 1007.85 1008.33 1008.95 1009.62 1010.27 1010.85 1011.34 1011.75 1012.11 1012.46 1012.83 1013.23 1013.67 1014.13 1014.55 1014.93 1015.21 1015.39 1015.47 1015.48 1015.45 1015.42 1015.43 1015.48 1015.58 1015.72 1015.86 1015.99 1016.07 1016.10 1016.09 1016.04 1015.98 1015.93 1015.92
1011.25 1011.57 1011.87 1012.07 1012.09 1011.88 1011.41 1010.70 1009.85 1008.94 1008.10 1007.44 1007.05 1006.96 1007.16 1007.60 1008.22 1008.92 1009.61 1010.25 1010.80 1011.27 1011.68 1012.07 1012.47 1012.90 1013.36 1013.83 1014.27 1014.65 1014.94 1015.13 1015.21 1015.21 1015.18 1015.14 1015.13 1015.17 1015.27 1015.40 1015.54 1015.67 1015.74 1015.77 1015.73 1015.66 1015.57 1015.51 1015.47
1011.36 1011.79 1012.19 1012.47 1012.54 1012.33 1011.83 1011.05 1010.09 1009.05 1008.07 1007.27 1006.74 1006.53 1006.65 1007.03 1007.61 1008.30 1009.01 1009.67 1010.26 1010.77 1011.21 1011.63 1012.05 1012.49 1012.97 1013.44 1013.90 1014.29 1014.59 1014.79 1014.88 1014.90 1014.87 1014.83 1014.82 1014.86 1014.95 1015.08 1015.22 1015.33 1015.39 1015.39 1015.33 1015.21 1015.09 1014.98 1014.91
1011.48 1011.99 1012.47 1012.81 1012.91 1012.71 1012.19 1011.38 1010.36 1009.24 1008.17 1007.26 1006.63 1006.32 1006.33 1006.64 1007.16 1007.80 1008.49 1009.14 1009.73 1010.24 1010.69 1011.12 1011.54 1011.99 1012.46 1012.94 1013.40 1013.81 1014.13 1014.34 1014.46 1014.50 1014.49 1014.48 1014.48 1014.53 1014.62 1014.75 1014.88 1014.98 1015.02 1015.00 1014.90 1014.75 1014.57 1014.41 1014.29
1011.61 1012.15 1012.66 1013.02 1013.15 1012.96 1012.45 1011.64 1010.61 1009.46 1008.35 1007.38 1006.67 1006.27 1006.20 1006.41 1006.84 1007.41 1008.03 1008.64 1009.19 1009.68 1010.12 1010.53 1010.95 1011.38 1011.84 1012.31 1012.77 1013.18 1013.52 1013.77 1013.92 1014.00 1014.03 1014.05 1014.08 1014.15 1014.26 1014.39 1014.52 1014.62 1014.65 1014.61 1014.49 1014.30 1014.08 1013.86 1013.69
1011.73 1012.26 1012.75 1013.10 1013.22 1013.05 1012.56 1011.78 1010.78 1009.66 1008.56 1007.58 1006.82 1006.36 1006.19 1006.29 1006.61 1007.08 1007.61 1008.13 1008.63 1009.07 1009.47 1009.85 1010.24 1010.65 1011.10 1011.56 1012.01 1012.43 1012.79 1013.07 1013.27 1013.39 1013.48 1013.54 1013.62 1013.72 1013.85 1013.99 1014.13 1014.23 1014.26 1014.21 1014.08 1013.88 1013.63 1013.38 1013.17
1011.85 1012.32 1012.75 1013.05 1013.14 1012.97 1012.51 1011.79 1010.85 1009.80 1008.74 1007.78 1007.01 1006.49 1006.24 1006.23 1006.43 1006.77 1007.18 1007.61 1008.02 1008.40 1008.75 1009.09 1009.45 1009.84 1010.26 1010.70 1011.15 1011.57 1011.96 1012.27 1012.51 1012.69 1012.83 1012.95 1013.07 1013.21 1013.37 1013.53 1013.68 1013.79 1013.83 1013.79 1013.67 1013.47 1013.23 1012.97 1012.73
Thickness
5823 5826 5826 5820 5813 5809 5799 5804 5813 5812 5812 5819 5820 5815 5808 5802 5795 5785 5805 5812 5811 5808 5803 5798 5794 5793 5792 5791 5790 5790 5789 5788 5787 5786 5785 5784 5782 5781 5779 5777 5776 5775 5774 5773 5773 5772 5771 5770 5770
5831 5830 5824 5820 5813 5799 5797 5809 5810 5811 5816 5822 5821 5817 5810 5804 5806 5803 5807 5810 5811 5809 5805 5799 5794 5792 5791 5790 5789 5789 5788 5787 5786 5785 5784 5783 5781 5780 5778 5776 5775 5774 5773 5773 5772 5772 5771 5770 5769
5834 5832 5824 5822 5812 5803 5800 5813 5814 5818 5823 5820 5815 5816 5809 5801 5805 5806 5810 5812 5812 5809 5805 5799 5794 5792 5790 5789 5788 5788 5787 5786 5785 5784 5783 5782 5780 5779 5778 5776 5775 5773 5772 5771 5771 5770 5770 5769 5768
5834 5830 5829 5820 5809 5814 5815 5819 5821 5818 5819 5821 5817 5808 5807 5809 5810 5812 5812 5813 5812 5809 5806 5799 5793 5791 5790 5788 5787 5786 5786 5785 5784 5783 5782 5780 5779 5778 5776 5775 5774 5773 5772 5771 5770 5769 5769 5768 5767
5837 5831 5823 5816 5814 5820 5826 5827 5826 5819 5816 5818 5817 5805 5799 5809 5816 5815 5813 5813 5811 5809 5806 5799 5793 5791 5790 5788 5787 5785 5785 5783 5782 5782 5781 5780 5778 5777 5775 5774 5773 5772 5770 5770 5769 5768 5768 5767 5766
5836 5835 5820 5810 5813 5822 5829 5832 5828 5821 5818 5818 5815 5807 5799 5810 5813 5813 5814 5813 5812 5809 5805 5799 5792 5791 5789 5787 5786 5784 5783 5782 5782 5781 5780 5779 5778 5776 5775 5774 5772 5771 5770 5769 5768 5768 5767 5766 5766
5834 5832 5821 5820 5817 5819 5826 5835 5828 5823 5818 5817 5820 5807 5802 5808 5813 5815 5814 5812 5811 5809 5805 5801 5797 5792 5788 5787 5785 5784 5783 5781 5781 5780 5779 5778 5777 5776 5775 5773 5772 5771 5770 5769 5768 5767 5767 5766 5766
5845 5838 5828 5825 5820 5819 5832 5835 5833 5828 5820 5827 5825 5809 5802 5809 5815 5816 5814 5811 5808 5807 5806 5802 5800 5796 5793 5789 5785 5783 5782 5781 5780 5779 5778 5777 5777 5776 5775 5774 5772 5770 5769 5769 5768 5768 5767 5767 5766
5850 5835 5824 5826 5824 5826 5836 5832 5832 5837 5828 5825 5825 5822 5819 5818 5817 5813 5809 5807 5804 5803 5804 5803 5800 5797 5794 5792 5787 5784 5782 5780 5780 5779 5778 5778 5779 5779 5776 5774 5772 5770 5769 5769 5768 5768 5767 5767 5767
5846 5831 5828 5838 5840 5837 5836 5834 5832 5829 5822 5819 5818 5820 5821 5818 5814 5810 5807 5804 5802 5801 5802 5801 5799 5797 5795 5792 5788 5786 5785 5782 5781 5780 5779 5779 5779 5778 5777 5773 5772 5770 5769 5769 5768 5768 5767 5768 5771
5845 5835 5841 5845 5848 5845 5839 5836 5839 5830 5819 5822 5818 5816 5817 5815 5813 5811 5809 5807 5805 5803 5801 5801 5799 5796 5794 5792 5789 5787 5785 5783 5782 5780 5778 5778 5778 5778 5777 5775 5774 5772 5771 5771 5769 5770 5771 5772 5772
5844 5845 5848 5848 5851 5845 5841 5839 5836 5832 5830 5836 5832 5825 5819 5815 5813 5812 5809 5808 5806 5803 5800 5800 5798 5794 5792 5791 5789 5787 5786 5784 5783 5779 5777 5777 5777 5776 5776 5774 5774 5774 5773 5772 5772 5771 5771 5772 5772
5844 5844 5850 5854 5853 5849 5845 5839 5836 5833 5839 5839 5833 5827 5821 5818 5816 5815 5813 5809 5805 5801 5800 5799 5797 5793 5790 5788 5788 5787 5785 5784 5783 5779 5777 5776 5776 5776 5776 5774 5773 5774 5773 5773 5772 5772 5771 5771 5771
5848 5849 5850 5853 5852 5849 5842 5840 5836 5834 5840 5835 5830 5826 5823 5820 5818 5815 5811 5807 5805 5801 5800 5799 5796 5793 5791 5789 5787 5787 5786 5783 5782 5780 5778 5775 5776 5775 5774 5774 5773 5773 5773 5772 5771 5772 5771 5772 5772
5853 5845 5846 5848 5850 5849 5846 5831 5833 5840 5840 5833 5829 5826 5823 5821 5819 5815 5813 5810 5807 5803 5801 5799 5797 5795 5791 5790 5789 5788 5787 5786 5783 5780 5778 5775 5774 5773 5772 5773 5772 5772 5771 5771 5771 5771 5771 5771 5771
5849 5842 5835 5843 5848 5849 5839 5823 5837 5845 5839 5831 5830 5826 5823 5821 5820 5818 5816 5812 5810 5806 5803 5800 5800 5796 5792 5790 5788 5789 5788 5785 5783 5781 5778 5775 5773 5771 5771 5771 5771 5770 5770 5770 5770 5770 5769 5769 5768
5840 5833 5832 5838 5849 5847 5839 5829 5839 5846 5840 5832 5829 5827 5824 5821 5820 5820 5818 5815 5812 5808 5804 5800 5799 5796 5794 5791 5789 5788 5786 5784 5783 5781 5778 5775 5773 5771 5771 5770 5769 5768 5769 5769 5769 5768 5767 5765 5764
5828 5833 5832 5834 5845 5844 5837 5836 5840 5844 5841 5835 5832 5829 5826 5822 5821 5822 5820 5818 5814 5810 5806 5802 5799 5796 5794 5792 5789 5787 5786 5785 5783 5781 5778 5775 5774 5772 5771 5770 5768 5769 5768 5766 5765 5763 5762 5762 5761
5839 5834 5832 5837 5848 5841 5836 5835 5839 5842 5840 5836 5832 5830 5827 5826 5827 5825 5822 5820 5816 5811 5806 5803 5800 5797 5794 5792 5789 5786 5784 5784 5783 5782 5778 5776 5774 5772 5770 5771 5768 5767 5766 5763 5763 5762 5760 5760 5760
5835 5830 5831 5838 5845 5839 5836 5836 5843 5843 5839 5839 5835 5832 5830 5828 5826 5823 5822 5820 5817 5812 5808 5804 5801 5798 5796 5793 5790 5788 5786 5785 5783 5781 5777 5776 5774 5772 5772 5769 5769 5768 5764 5762 5761 5759 5758 5759 5758
5831 5831 5831 5830 5836 5841 5834 5829 5835 5841 5843 5842 5840 5839 5837 5832 5827 5824 5821 5820 5819 5814 5811 5808 5803 5800 5797 5795 5793 5790 5786 5783 5782 5779 5778 5776 5774 5772 5770 5768 5768 5766 5766 5763 5760 5758 5755 5755 5756
5825 5839 5836 5831 5826 5827 5830 5817 5830 5839 5836 5838 5839 5839 5837 5835 5832 5828 5824 5822 5820 5817 5814 5809 5804 5800 5797 5794 5792 5788 5784 5781 5779 5779 5778 5776 5773 5771 5769 5767 5766 5764 5765 5761 5761 5759 5757 5753 5752
5832 5842 5836 5831 5826 5824 5828 5820 5829 5839 5831 5836 5840 5841 5841 5839 5835 5831 5828 5825 5823 5820 5816 5810 5804 5799 5796 5793 5790 5787 5785 5783 5782 5779 5776 5773 5773 5771 5769 5767 5765 5763 5763 5760 5758 5756 5755 5755 5752
5837 5832 5829 5829 5827 5806 5819 5816 5817 5833 5833 5837 5841 5842 5841 5840 5837 5833 5830 5826 5823 5820 5815 5811 5804 5799 5796 5792 5789 5785 5782 5779 5776 5774 5773 5772 5773 5771 5769 5766 5764 5762 5761 5758 5757 5755 5754 5752 5750
5830 5818 5805 5800 5801 5805 5824 5815 5818 5836 5841 5840 5840 5841 5842 5840 5837 5832 5828 5824 5820 5817 5814 5810 5804 5798 5795 5792 5788 5785 5781 5778 5774 5773 5772 5770 5770 5769 5766 5765 5762 5761 5759 5757 5755 5753 5752 5750 5748
5825 5823 5801 5789 5795 5810 5814 5810 5826 5840 5842 5843 5843 5843 5841 5839 5838 5833 5829 5824 5820 5816 5812 5808 5803 5797 5794 5790 5786 5783 5780 5779 5777 5773 5772 5770 5768 5767 5765 5762 5760 5758 5756 5755 5753 5752 5750 5748 5746
5818 5820 5831 5816 5809 5804 5811 5817 5826 5836 5834 5835 5836 5836 5836 5836 5835 5832 5829 5825 5820 5815 5811 5807 5801 5796 5792 5789 5784 5780 5778 5776 5773 5771 5770 5768 5765 5765 5762 5760 5758 5756 5754 5751 5750 5749 5746 5745 5744
5827 5826 5817 5808 5786 5784 5799 5807 5814 5819 5821 5826 5827 5829 5831 5832 5832 5830 5827 5823 5819 5815 5809 5805 5799 5793 5790 5787 5783 5780 5775 5773 5770 5767 5764 5761 5760 5759 5756 5755 5754 5753 5751 5748 5746 5745 5743 5740 5739
5810 5810 5810 5809 5806 5788 5786 5804 5826 5821 5822 5822 5823 5825 5826 5827 5827 5825 5822 5819 5815 5811 5805 5800 5796 5790 5786 5783 5780 5776 5773 5769 5765 5762 5759 5756 5755 5753 5752 5751 5750 5748 5746 5744 5742 5741 5738 5736 5734
5817 5814 5809 5794 5789 5795 5792 5803 5829 5825 5825 5821 5820 5819 5820 5821 5821 5819 5815 5812 5808 5804 5800 5796 5792 5787 5783 5780 5776 5771 5768 5765 5761 5757 5754 5752 5750 5748 5747 5747 5746 5744 5742 5739 5737 5736 5734 5731 5729